Total_Precipitation_Accumulation
0.18 0.43 0.95 1.45 2.12 2.84 2.54 1.74 1.00 0.77 0.68 0.73 0.80 0.80 0.91 1.06 1.52 2.28 2.34 2.14 1.92 2.17 2.62 3.34 3.61 3.15 2.86 2.82 2.70 2.71 2.88 2.90 2.94 3.00 3.06 3.13 3.34 3.48 3.65 3.57 3.33 3.24 3.20 3.09 3.25 3.40 3.31 3.22 3.09
0.30 0.69 1.23 1.74 2.56 2.80 2.23 1.83 0.98 0.74 0.67 0.68 0.71 0.77 0.82 0.76 0.80 1.30 2.09 1.98 1.76 1.92 2.24 2.86 3.44 3.13 2.78 2.77 2.74 2.83 2.89 2.86 2.92 3.06 3.18 3.29 3.45 3.57 3.51 3.29 3.15 3.15 3.09 2.99 3.07 3.31 3.23 2.97 2.97
0.46 0.88 1.24 1.79 1.93 1.81 1.53 1.23 0.82 0.70 0.62 0.73 0.76 0.72 0.74 1.03 1.02 1.43 1.81 1.65 1.76 1.88 2.17 2.98 3.42 3.24 3.02 2.89 2.93 2.83 2.78 2.82 3.08 3.35 3.42 3.56 3.53 3.55 3.38 3.17 3.05 2.92 2.76 2.83 2.97 3.21 3.08 2.88 2.90
0.53 0.92 1.23 1.38 1.21 0.97 0.82 0.68 0.54 0.62 0.55 0.62 0.73 0.73 0.88 1.06 1.05 1.38 1.58 1.60 1.69 1.92 2.22 2.84 3.21 3.16 3.03 2.81 2.79 2.93 3.10 3.22 3.39 3.49 3.48 3.51 3.46 3.51 3.34 3.00 2.85 2.63 2.46 2.48 2.71 2.97 3.00 2.84 2.81
0.69 1.11 1.37 1.13 0.91 0.76 0.62 0.53 0.49 0.58 0.55 0.65 0.77 0.96 1.26 1.29 1.14 1.40 1.56 1.55 1.57 1.75 2.10 2.44 3.00 3.23 3.10 2.95 3.02 3.11 3.16 3.19 3.25 3.24 3.09 3.01 3.03 3.14 3.01 2.79 2.66 2.47 2.21 2.19 2.63 2.91 2.90 2.68 2.64
0.85 1.24 1.11 0.89 0.77 0.63 0.57 0.47 0.44 0.52 0.57 0.64 0.82 1.14 1.69 1.80 1.53 1.44 1.43 1.35 1.48 1.69 1.95 2.23 2.80 3.13 3.22 3.19 3.31 3.29 3.21 3.28 3.21 3.03 2.88 2.71 2.56 2.74 2.69 2.53 2.57 2.46 2.30 2.43 2.78 2.88 2.71 2.61 2.68
1.08 1.24 0.84 0.64 0.61 0.58 0.51 0.40 0.45 0.45 0.56 0.77 0.94 1.27 1.89 2.29 1.88 1.49 1.47 1.54 1.75 1.80 1.91 2.32 2.73 2.83 2.92 3.35 3.47 3.43 3.35 3.37 3.26 3.08 2.84 2.61 2.44 2.44 2.38 2.42 2.53 2.49 2.54 2.70 2.93 2.97 2.84 2.74 2.92
0.60 0.72 0.65 0.51 0.41 0.47 0.45 0.38 0.42 0.48 0.55 0.69 0.88 1.24 1.93 1.97 1.70 1.60 1.82 1.96 2.19 2.15 2.06 2.23 2.48 2.47 2.59 2.98 3.37 3.40 3.23 3.13 3.11 3.16 2.91 2.85 2.71 2.49 2.42 2.40 2.49 2.61 2.75 3.01 3.15 3.14 3.07 2.93 3.07
0.41 0.60 0.52 0.34 0.32 0.38 0.35 0.36 0.41 0.42 0.48 0.68 0.84 1.12 1.47 1.45 1.43 1.49 2.09 2.30 2.39 2.31 2.31 2.26 2.21 2.23 2.51 2.67 2.98 3.20 3.30 3.30 3.33 3.42 3.21 3.08 3.02 2.68 2.67 2.65 2.93 3.10 3.05 3.35 3.57 3.62 3.38 3.34 3.63
0.29 0.34 0.23 0.17 0.20 0.26 0.31 0.37 0.39 0.47 0.71 1.05 1.33 1.37 1.31 1.33 1.49 1.72 2.19 2.20 2.39 2.52 2.37 2.38 2.37 2.28 2.33 2.48 2.81 3.11 2.87 3.04 3.39 3.49 3.31 3.14 3.26 3.25 2.68 2.99 3.58 3.78 3.75 3.94 4.16 4.14 3.60 3.33 3.40
0.20 0.20 0.16 0.14 0.17 0.22 0.27 0.35 0.41 0.51 0.97 1.41 1.83 1.69 1.47 1.55 1.68 1.97 2.40 2.63 2.64 2.82 2.63 2.59 2.48 2.29 2.15 2.41 2.39 2.63 2.80 3.10 3.35 3.19 3.09 3.05 2.87 2.80 2.78 3.22 3.86 4.00 3.93 4.06 4.30 4.07 3.48 3.56 3.80
0.12 0.13 0.15 0.17 0.19 0.23 0.33 0.39 0.47 0.57 0.86 0.98 1.21 1.47 1.61 1.79 2.02 2.30 2.49 2.73 2.76 2.87 2.81 2.93 2.69 2.65 2.70 2.52 2.22 2.15 2.24 2.54 2.90 3.14 3.04 3.07 3.32 3.35 3.29 3.54 3.63 3.84 4.02 4.43 4.17 4.21 4.02 3.99 3.86
0.10 0.11 0.15 0.16 0.19 0.25 0.32 0.35 0.48 0.63 0.68 0.74 1.06 1.42 1.81 1.97 2.23 2.54 2.64 2.93 2.85 2.83 2.90 3.07 2.99 2.85 2.90 2.75 2.60 2.34 2.39 2.42 2.58 2.81 3.05 3.09 3.47 3.78 3.75 3.70 3.66 3.60 3.54 3.77 3.95 3.86 4.17 4.37 3.94
0.09 0.11 0.13 0.16 0.20 0.31 0.35 0.36 0.49 0.67 0.76 0.94 1.19 1.46 1.76 2.06 2.26 2.42 2.85 3.02 3.12 3.07 3.18 3.07 3.08 3.05 3.08 3.14 3.16 3.02 2.65 2.73 2.70 2.79 2.89 3.03 3.48 3.95 4.05 3.88 3.71 3.47 3.35 3.45 3.63 3.79 4.28 4.31 4.11
0.12 0.18 0.19 0.21 0.27 0.32 0.37 0.59 0.72 0.85 0.89 1.02 1.25 1.40 1.67 2.19 2.43 2.46 2.80 2.98 2.96 3.42 3.54 3.59 3.53 3.70 3.72 3.63 3.52 3.25 3.01 2.84 2.88 3.13 3.25 3.17 3.36 3.78 3.75 3.51 3.36 3.29 3.38 3.59 3.59 3.81 4.00 3.75 3.83
0.16 0.29 0.36 0.34 0.33 0.29 0.42 0.88 0.93 1.05 1.00 1.15 1.35 1.49 1.72 2.04 2.37 2.51 2.80 3.02 3.14 3.57 3.87 4.20 4.02 4.10 4.01 4.05 3.99 3.64 3.36 3.17 3.05 3.10 3.23 3.05 3.07 3.26 3.58 3.30 3.15 3.44 3.46 3.61 3.92 4.11 4.01 4.05 4.12
0.23 0.29 0.34 0.33 0.30 0.31 0.41 0.74 0.87 1.08 1.27 1.42 1.53 1.68 1.70 1.98 2.30 2.67 2.92 3.25 3.53 3.90 4.31 4.79 4.73 4.53 4.26 4.31 4.27 4.04 3.85 3.53 3.14 3.01 3.00 2.94 2.94 3.10 3.45 3.42 3.52 3.57 3.70 3.79 3.61 4.07 4.12 4.08 4.14
0.20 0.25 0.29 0.34 0.30 0.35 0.56 0.77 0.87 1.08 1.37 1.39 1.61 1.77 1.83 1.91 2.37 2.82 2.99 3.36 3.82 4.37 4.84 4.84 4.83 5.02 4.89 4.72 4.59 4.27 3.78 3.34 3.16 3.12 2.99 2.93 3.03 3.12 3.54 3.43 3.45 3.50 3.75 3.88 3.82 3.98 4.02 3.77 3.79
0.13 0.20 0.27 0.34 0.30 0.33 0.54 0.83 1.13 1.30 1.60 1.50 1.51 1.65 1.79 1.91 2.20 2.62 2.89 3.40 3.99 4.45 4.88 5.11 5.20 5.10 4.94 4.58 4.29 4.06 3.82 3.60 3.32 3.11 3.01 2.97 2.92 3.16 3.66 3.40 3.68 3.61 3.67 3.74 3.77 3.93 3.85 3.57 3.75
0.14 0.20 0.25 0.30 0.29 0.38 0.61 0.88 1.22 1.33 1.41 1.39 1.31 1.36 1.56 1.86 2.11 2.60 2.90 3.12 3.53 4.05 4.54 4.88 5.10 5.00 4.62 4.28 4.14 4.07 4.04 3.65 3.37 3.33 3.49 3.28 3.28 3.33 3.37 3.64 3.61 3.70 3.88 3.84 3.79 3.93 3.71 3.35 3.64
0.17 0.21 0.24 0.25 0.28 0.49 0.68 1.20 1.45 1.36 1.38 1.35 1.32 1.34 1.50 1.94 2.38 2.64 2.84 2.98 3.21 3.61 3.92 4.04 4.25 4.24 4.08 4.13 4.16 4.15 4.20 3.80 3.73 3.75 3.78 3.54 3.54 3.55 3.57 3.57 3.53 3.59 3.40 3.50 3.59 3.61 3.64 3.58 3.49
0.23 0.22 0.19 0.22 0.33 0.62 0.75 1.50 1.89 1.68 1.57 1.63 1.62 1.53 1.77 2.03 2.08 2.28 2.55 2.81 2.97 3.20 3.52 3.75 3.82 3.78 3.71 3.84 3.92 3.85 3.67 3.57 3.74 4.03 3.96 3.69 3.48 3.35 3.18 3.14 3.33 3.38 3.15 3.26 2.91 3.11 3.33 3.34 3.21
0.20 0.20 0.21 0.27 0.37 0.62 0.79 1.22 1.80 1.72 1.88 1.85 1.66 1.70 1.97 1.92 1.81 1.95 2.15 2.45 2.57 2.88 3.16 3.37 3.62 3.71 3.66 3.76 3.77 3.82 3.65 3.64 3.70 3.70 3.77 3.58 3.40 3.08 2.74 2.79 3.05 3.04 2.97 2.90 2.80 3.03 2.90 2.84 2.95
0.16 0.21 0.31 0.42 0.61 1.07 0.88 1.00 1.64 1.71 1.59 1.58 1.56 1.50 1.69 1.62 1.59 1.82 2.01 2.28 2.44 2.56 2.69 2.80 3.01 3.27 3.47 3.53 3.53 3.63 3.58 3.51 3.46 3.46 3.37 3.16 3.00 2.80 2.49 2.40 2.64 2.81 2.88 2.87 2.84 2.94 2.86 2.92 3.04
0.17 0.32 0.80 1.22 1.43 1.40 0.77 0.89 1.43 1.32 1.24 1.25 1.36 1.37 1.40 1.35 1.33 1.56 1.72 1.90 2.11 2.21 2.30 2.46 2.75 3.10 3.19 3.16 3.15 3.28 3.33 3.32 3.26 3.25 3.11 2.89 2.67 2.45 2.40 2.42 2.59 2.66 2.75 2.64 2.71 2.80 2.80 2.97 3.06
0.21 0.28 0.77 1.13 1.26 1.19 0.93 1.36 1.78 1.32 1.15 1.20 1.29 1.28 1.24 1.18 1.12 1.26 1.52 1.84 2.00 1.97 2.03 2.20 2.50 2.77 2.82 2.75 2.91 3.19 3.25 3.28 3.20 3.24 2.93 2.68 2.47 2.43 2.53 2.54 2.42 2.39 2.49 2.37 2.69 2.62 2.67 2.91 3.01
0.21 0.23 0.34 0.56 0.69 0.98 1.20 1.53 1.53 1.05 1.00 1.06 1.14 1.14 1.26 1.21 1.13 1.21 1.29 1.49 1.61 1.66 1.74 1.91 2.33 2.62 2.72 2.80 2.97 3.12 3.22 3.16 3.12 3.02 2.74 2.49 2.51 2.47 2.62 2.60 2.53 2.42 2.49 2.62 2.92 2.83 2.76 2.99 2.97
0.20 0.25 0.31 0.46 0.76 1.12 1.32 1.66 1.80 1.26 1.04 0.80 0.78 0.86 0.91 0.93 0.96 1.03 1.06 1.16 1.26 1.44 1.71 1.91 2.09 2.43 2.55 2.66 2.86 2.89 3.12 3.01 2.84 2.79 2.57 2.34 2.25 2.35 2.59 2.75 2.65 2.50 2.52 2.70 2.91 2.87 3.01 3.20 3.24
0.24 0.26 0.30 0.38 0.51 0.86 1.44 1.69 1.29 1.02 0.88 0.83 0.78 0.87 0.91 0.90 0.86 0.88 1.00 1.12 1.22 1.37 1.60 1.75 1.80 2.03 2.23 2.40 2.61 2.63 2.64 2.72 2.76 2.59 2.33 2.27 2.32 2.44 2.52 2.63 2.62 2.53 2.57 2.71 2.77 2.73 3.06 3.22 3.27
0.24 0.23 0.28 0.39 0.40 0.52 0.90 1.27 0.86 0.84 0.90 0.90 0.86 0.93 1.02 1.00 0.95 0.98 1.12 1.23 1.29 1.44 1.51 1.56 1.64 1.85 2.08 2.33 2.59 2.75 2.75 2.70 2.69 2.53 2.34 2.35 2.43 2.46 2.40 2.47 2.47 2.35 2.40 2.62 2.63 2.68 3.05 3.27 3.09